OPS 4682 DEB, 29060

Orbit data source: Space-Track

OPS 4682 DEB, 29060 is space debris in LEO originally from a launch on Sat, 03 Apr 1965 UTC launched from the Air Force Western Test Range (AFWTR). Debris objects in space refer to the collection of defunct objects orbiting the Earth. Examples of debris include non-operational satellites, rocket bodies, and fragments generated from explosions, collisions, or faulty payload assembly.

Loading next visibility...
Identifier
29060, 1965-027BK
Orbit
LEO
Country
Flag of USUS
Related business
Manufacturer
Unknown
Mission
Spacecraft
Bus & Motor
Unknown
Mass
Unknown
Launch date (UTC)
1965-04-03 (61 years ago)
Launch vehicle
Unknown
Launch site
Air Force Western Test Range (AFWTR)
Object type
Payload
Rocket body
Debris
Shape & HBR
Unknown shape, 0.1 m
Radar Cross Section
Small (<0.1 m²)

Expand to show TLE details & history
Last TLE update: 4 days ago

TLE from 4 days ago
0 OPS 4682 DEB
1 29060U 65027BK  25298.96206840  .00000126  00000-0  42335-3 0  9997
2 29060  90.2446   5.0595 0033416 102.7096  80.5593 12.94737672433806
Epoch: 2025-10-25T23:05Z
TLE epoch observation values (Epoch: 2025-10-25T23:05:22.709Z)
Latitude
-3.78023°
Longitude
164.1137°
Altitude
1,282.104 km
Speed
7.217 km/s
True Right ascension
12h 20m 10s
True Declination
-3° 45' 33"
Sunlit
Object was in daylight at epoch
Visualization orbit readout
Latitude
Unknown
Longitude
Unknown
Altitude
Unknown
Speed
Unknown
Apparent Right ascension
Unknown
Apparent Declination
Unknown
Sunlit
N/A
Visualization observer readout
Local Sidereal Time
22:14:13
Azimuth
Unknown
Elevation
Unknown
Doppler factor
Unknown
Orbital elements
Apogee altitude
1,305.499 km
Perigee altitude
1,254.319 km
Semi-major axis
7,658.046 km
Eccentricity
0.00334
Inclination
90.2446°
RAAN
5.0595°
Arg. of periapsis
102.7096°
True anomaly
80.93729°
Mean anomaly
80.5593°
Eccentric anomaly
80.74827°
Mean motion
3.23867 °/min
Orbital period
111.16 mins
BSTAR
0.00042335
Loading maneuver chart data...
Computing Atmospheric mass density...
Loading historical data...
Loading historical data...
Loading historical data...
Loading historical data...
Loading historical data...
Loading historical data...
Loading historical data...

Documentation

Showing up to 5 results
|